www.pogodaiklimat.ru

Погода и климат >> Архив погоды >> Россия >> Красноярский край >> Ирбейское


ПОГОДА в Ирбейском

  • Прогноз погоды в Ирбейском
  • Монитор погоды в Ирбейском

АРХИВ ПОГОДЫ в Ирбейском

Время (UTC), дата Ветер
(напр.,м/с)
 
Видим.   Явления Облачность Т
(С)
Тd
(С)
f
(%)
Тe
(С)
Тes
(С)
Комфортность P
(гПа)
Po
(гПа)
Тmin
(С)
Tmax
(С)
R
(мм)
R24
(мм)
S
(см)
15 11.04 штиль 0 н/о ясно -4.6 -11.9 57 -5 -5 1023.0 990.8
18 11.04 штиль 0 н/о 8/3 1000 м
[Sc Ac lent Ci sp]
-3.9 -9.2 67 -5 -5 1021.6 989.6
21 11.04 З 3 н/о 9/8 600 м
[Cb cap Ac lent]
-1.1 -6.9 65 -6 -6 1020.6 989.0
00 12.04 З 2 20 км в посл. час ливневой снег 10/10 600 м
[Cb cap]
-0.5 -3.8 78 -4 -4 1018.3 986.9 -4.8 0.2 <0.5
03 12.04 З 4
{13}
20 км в посл. час ливневой снег 8/8 600 м
[Cb cap]
+2.1 -2.8 70 -3 -2 1019.9 988.6
06 12.04 С 3
{12}
20 км {ливн. осадки} 8/6 600 м
[Cb cap Ac trans Ci sp]
+1.3 -4.6 65 -3 0 1023.0 991.5
09 12.04 С 2 20 км 6/3 600 м
[Cb cap Ac lent Ci sp]
+4.3 -8.4 39 +2 +5 1023.2 992.1
12 12.04 В 1 20 км 9/8 600 м
[Cb cap Ac lent Ci sp]
+1.5 -8.0 49 0 0 1023.1 991.6 +4.4 0.0
15 12.04 З 1 н/о 9/6 600 м
[Cb cap Ac lent]
0.0 -6.8 60 -1 -1 1022.3 990.7
18 12.04 СВ 1 н/о слаб. ливневой снег 10/10 600 м
[Cb cap]
-0.4 -0.9 96 -3 -3 1019.0 987.5
21 12.04 штиль 0 н/о {ливн. осадки} 9/9 600 м
[Cb cap]
+0.4 -0.2 96 -1 -1 1015.7 984.4
00 13.04 З 5 20 км {ливн. осадки} 9/9 600 м
[Cb cap Ac lent Ci sp]
+5.9 -2.7 54 +2 +2 1013.2 982.6 -1.1 2 1
03 13.04 З 9-18
{18}
20 км 8/4 600 м
[Cb cap Ac trans Ci sp]
+11.4 -1.8 40 +8 +8 1010.4 980.5
06 13.04 З 11-18
{19}
20 км 9/4 600 м
[Cb cap Ac trans Ci sp]
+14.9 -4.7 25 +13 +13 1007.2 977.7
09 13.04 З 8-15
{19}
20 км 9/8 600 м
[Cb cap Ac trans Ci sp]
+14.3 -6.3 23 +12 +13 1006.3 976.8
12 13.04 З 5
{16}
20 км 9/8 600 м
[Cb cap Ac trans Ci sp]
+13.9 -6.8 23 +13 +13 1006.4 976.8 +15.4
15 13.04 З 4 н/о 9/8 600 м
[Cb cap Ac lent Ci sp]
+11.4 -5.2 31 +10 +10 1005.4 975.6
18 13.04 З 5-10
{11}
н/о 9/9 600 м
[Cb cap]
+10.9 -3.8 35 +9 +9 1005.0 975.1
21 13.04 В 2
{10}
н/о 9/9 600 м
[Cb cap]
+6.0 +0.5 68 +4 +4 1005.7 975.3
00 14.04 З 2 20 км 9/8 600 м
[Cb cap Ac trans Ci sp]
+3.6 -0.2 76 +1 +1 1007.9 977.2 +3.6
03 14.04 СЗ 2
{10}
4000 м слаб. ливневой дождь со снегом 10/10 600 м
[Cb cap]
+0.3 -0.3 96 -3 -3 1010.4 979.2 +0.3
06 14.04 З 3 20 км {ливн. осадки} 9/9 600 м
[Cb cap]
+0.2 -2.0 85 -4 -4 1010.7 979.6
09 14.04 ЮЗ 3 20 км 9/9 600 м
[Cb cap]
+2.5 -1.0 78 -2 -1 1011.1 980.2
12 14.04 СЗ 2 20 км 9/8 600 м
[Cb cap Ac lent]
+3.5 -5.6 51 +1 +1 1012.3 981.4 +4.3 3
15 14.04 З 2 н/о 9/8 600 м
[Cb cap Ac trans Ci sp]
+0.9 -4.5 67 -2 -2 1013.0 981.8
18 14.04 З 1 н/о 10/0 600 м
[As op]
+0.1 -4.5 71 -2 -2 1013.1 981.8
21 14.04 С 1 н/о слаб. снег 10/0 600 м
[As op]
-1.2 -4.3 79 -3 -3 1011.8 980.4
00 15.04 С 1 2000 м снег 10/0 600 м
[As op]
-2.0 -3.7 88 -4 -4 1012.5 981.0 -2.1 1 1
03 15.04 З 2 20 км {ливн. осадки, снег} 9/8 600 м
[Cb cap Ac lent Ci sp]
+0.3 -5.8 64 -3 -2 1012.7 981.5 -2.2
06 15.04 З 3 20 км {ливн. осадки, снег} 9/6 600 м
[Cb cap Ac lent Ci sp]
+2.0 -8.9 44 -1 +1 1012.9 981.8
09 15.04 С 2 20 км 9/6 600 м
[Cb cap Ac lent Ci sp]
+3.3 -11.8 32 +1 +3 1012.5 981.6
12 15.04 С 1 20 км 8/4 600 м
[Cb cap Ac lent Ci sp]
+1.0 -13.0 34 0 0 1011.9 980.7 +3.8 0.6
15 15.04 В 1 н/о 9/8 600 м
[Cb cap Ac lent]
-1.9 -8.1 63 -4 -4 1011.2 979.8
18 15.04 В 1 н/о 8/4 1000 м
[Sc Ac lent Ci sp]
-4.7 -8.1 77 -7 -7 1009.3 977.6
21 15.04 СВ 1 н/о 6/3 1000 м
[Sc Ac lent Ci sp]
-5.4 -8.6 78 -8 -8 1007.5 975.7
00 16.04 штиль 0 20 км 9/3 1000 м
[Sc Ac lent Ci sp]
-3.5 -8.1 70 -4 -4 1006.4 974.9 -6.6
03 16.04 СВ 4 20 км 9/3 1000 м
[Sc Ac trans Ci fib]
+1.8 -10.2 41 -2 -0 1005.0 974.1
06 16.04 С 3 20 км 6/6 600 м
[Cu med, cong]
+4.2 -12.7 28 +2 +5 1005.6 975.0
09 16.04 СВ 4 20 км 3/3 600 м
[Cu hum]
+5.1 -13.0 26 +2 +5 1006.9 976.4
12 16.04 СВ 2 20 км 3/3 1000 м
[Sc]
+2.9 -13.0 30 +1 +1 1009.6 978.7 +5.6
15 16.04 штиль 0 н/о ясно -4.2 -9.0 69 -5 -5 1012.6 980.9
18 16.04 З 1 н/о ясно -7.7 -10.2 82 -10 -10 1014.5 982.3
21 16.04 штиль 0 н/о ясно -9.6 -11.4 87 -10 -10 1015.6 983.1
00 17.04 штиль 0 20 км ясно -5.2 -8.3 79 -6 -5 1016.5 984.5 -10.0
03 17.04 З 3 20 км 3/0
[Ci sp]
+4.4 -7.7 41 +2 +8 1014.8 983.9
06 17.04 ЮЗ 3 20 км 6/4 600 м
[Cu med, cong Ci sp]
+8.1 -9.8 27 +6 +12 1013.2 982.8
09 17.04 ЮЗ 3 20 км 8/8 600 м
[Cb cap Ac lent]
+8.8 -10.0 25 +7 +8 1011.1 980.8
12 17.04 ЮЗ 3 20 км 4/4 600 м
[Cb cap]
+7.6 -10.2 27 +6 +6 1009.8 979.4 +9.5
15 17.04 штиль 0 н/о ясно -2.8 -8.4 65 -4 -4 1009.3 977.8
18 17.04 штиль 0 н/о 3/0
[Ac lent]
-6.0 -8.8 81 -7 -7 1008.7 976.9
21 17.04 штиль 0 н/о 3/3 1000 м
[Sc Ac lent]
-7.3 -9.2 86 -8 -8 1006.9 975.0
00 18.04 В 2 20 км 3/3 1000 м
[Sc]
+0.4 -5.4 65 -3 -2 1002.3 971.5 -7.9
03 18.04 ЮЗ 3 20 км 9/3 1000 м
[Sc Cs]
+10.9 -8.4 25 +10 +13 996.3 966.7
06 18.04 ЮЗ 5-11
{11}
20 км 9/9 600 м
[Cb cap]
+14.8 -5.6 24 +14 +14 989.4 960.4
09 18.04 З 8-15
{18}
20 км в посл. час ливневой дождь {метель} 10/10 600 м
[Cb cap]
+3.8 +0.1 77 -2 -2 996.3 965.9
12 18.04 З 7-12
{16}
20 км {ливн. осадки, метель} 9/4 600 м
[Cb cap Ac trans Ci sp]
+1.9 -3.6 67 -4 -4 1003.5 972.8 +15.0 0.6

 

Местоположение метеостанции Ирбейское (Красноярский край, Россия): широта 55.63 долгота 95.47 высота над уровнем моря 252 м.

В архиве по умолчанию представлена погода в Ирбейском за последнюю неделю. Архивные данные за месяц целиком и за предыдущие месяцы, начиная с января 2011 года, Вы можете получить, выбрав интересующий диапазон дат из раскрывающегося списка и нажав кнопку "Ввод!".


*Определитесь, кто Вы:
робот инопланетянин человек

Внимание! Время в таблицах - всемирное. Для получения местного времени необходимо прибавить поправку, которая равна 7 ч.

Смотрите также архив погоды в соседних городах и на ближайших метеорологических станциях:

Погода в Агинском (Красноярский край, Россия) (56 км)
Погода в Солянке (Красноярский край, Россия) (61 км)
Погода в Канске (Красноярский край, Россия) (64 км)
Погода в Уяре (Красноярский край, Россия) (74 км)
Погода в Шалинском (Красноярский край, Россия) (108 км)
Погода в Абане (Красноярский край, Россия) (124 км)
Погода в Дзержинском (Красноярский край, Россия) (137 км)
Погода в Железногорске (Красноярский край, Россия) (140 км)
Погода в Анастасино (Красноярский край, Россия) (144 км)
Погода в Тайшете (Иркутская область, Россия) (162 км)

Пояснения к столбцам:

Ветер - указаны скорость ветра в м/с - средняя за 10 мин, порывы в срок и между сроками (в фигурных скобках) и направление, откуда дует ветер: С - северный, СВ - северо-восточный, В - восточный, ЮВ - юго-восточный, Ю - южный, ЮЗ - юго-западный, З - западный, СЗ - северо-западный.
Видимость - горизонтальная дальность видимости в метрах или километрах. При видимости от 1 до 10 км при отсутствии осадков обычно наблюдается дымка, при ухудшении видимости до 1 км и менее - туман. В сухую погоду видимость может ухудшаться дымом, пылью или мглою.
Явления - указаны атмосферные явления, наблюдавшиеся в срок или в последний час перед сроком; фигурными скобками обозначены явления, наблюдавшиеся между сроками (за 1-3 часа до срока); квадратными скобками обозначены град или гололедные отложения с указанием их диаметра в мм.
Облачность - указаны через наклонную черту общая и нижняя облачность в баллах и высота нижней границы облаков в метрах; квадратными скобками обозначены формы облаков: Ci - перистые, Cs - перисто-слоистые, Cc - перисто-кучевые, Ac - высококучевые, As - высокослоистые, Sc - слоисто-кучевые, Ns - слоисто-дождевые, Cu - кучевые, Cb - кучево-дождевые. Подробнее классификацию облаков см. в Атласе облаков (PDF).
T - Температура воздуха - температура, измеренная на высоте 2 м над землей.
Td - Температура точки росы - температура, при понижении до которой содержащийся в воздухе водяной пар достигнет насыщения.
f - Относительная влажность воздуха - влажноcть воздуха, измеренная на высоте 2 м над землей.
Te - Эффективная температура - температура, которую ощущает одетый по сезону человек в тени. Характеристика душности погоды. При расчете учитывается влияние влажности воздуха и скорости ветра на теплоощущения человека.
Tes - Эффективная температура на солнце - температура, которую ощущает человек, с поправкой на солнечный нагрев. Характеристика знойности погоды. Зависит от высоты солнца над горизонтом, облачности и скорости ветра. Ночью, в пасмурную погоду, а также при ветре 12 м/с и более поправка равна нулю.
P - Атмосферное давление - приведенное к уровню моря атмосферное давление.
Po - Атмосферное давление - измеренное на уровне метеостанции атмосферное давление.
Tmin - Минимальная температура - минимум температуры воздуха на высоте 2 м над землей.
Tmax - Максимальная температура - максимум температуры воздуха на высоте 2 м над землей.
R - Количество осадков - Количество выпавших осадков за период времени, мм. При наведении курсора мыши на число - период времени, за который выпало указанное количество осадков.
R24 - Количество осадков - Количество выпавших осадков за 24 часа, мм.
S - Снежный покров - Высота снежного покрова, см. При наведении курсора мыши на число - состояние снежного покрова и степень покрытия местности в баллах.